Schneifelwetter: Wetterstation Hallschlag, 537 m . NN
Wetterdaten: Samstag, 14.03.2009
Datum Zeit Temp. A. Temp. 2 Feuchte A. Luftdruck Regen Wind Richtung Richtung Sonnenschein Helligkeit T Regen Taupunkt Windchill
14.03.2009 00:10 2,4 C 1,7 C 94 % 1017 hPa 0,0 l/m 0,0 km/h (0 Bft) W-SW 250 0 min 0 lux 0,00 min 1,5 C 2,4 C
14.03.2009 00:25 2,5 C 1,7 C 94 % 1017 hPa 0,0 l/m 0,0 km/h (0 Bft) W-SW 250 0 min 0 lux 0,00 min 1,6 C 2,5 C
14.03.2009 00:40 2,4 C 1,5 C 94 % 1017 hPa 0,0 l/m 0,0 km/h (0 Bft) W-SW 250 0 min 0 lux 0,00 min 1,5 C 2,4 C
14.03.2009 00:55 2,3 C 1,3 C 94 % 1017 hPa 0,0 l/m 0,0 km/h (0 Bft) W-SW 250 0 min 0 lux 0,00 min 1,4 C 2,3 C
14.03.2009 01:10 2,0 C 1,1 C 94 % 1017 hPa 0,0 l/m 0,0 km/h (0 Bft) W-SW 250 0 min 0 lux 0,00 min 1,1 C 2,0 C
14.03.2009 01:25 1,8 C 0,8 C 94 % 1017 hPa 0,0 l/m 0,0 km/h (0 Bft) W-SW 250 0 min 0 lux 0,00 min 0,9 C 1,8 C
14.03.2009 01:40 1,8 C 0,8 C 95 % 1017 hPa 0,0 l/m 2,8 km/h (1 Bft) W-SW 250 0 min 0 lux 0,00 min 1,1 C 1,8 C
14.03.2009 02:00 1,5 C 0,6 C 95 % 1017 hPa 0,0 l/m 0,0 km/h (0 Bft) W-SW 250 0 min 0 lux 0,00 min 0,8 C 1,5 C
14.03.2009 02:15 1,3 C 0,1 C 95 % 1016 hPa 0,0 l/m 0,0 km/h (0 Bft) W-SW 250 0 min 0 lux 0,00 min 0,6 C 1,3 C
14.03.2009 02:31 1,1 C -0,1 C 95 % 1017 hPa 0,0 l/m 0,0 km/h (0 Bft) W-SW 250 0 min 0 lux 0,00 min 0,4 C 1,1 C
14.03.2009 02:46 0,9 C -0,3 C 96 % 1016 hPa 0,0 l/m 0,0 km/h (0 Bft) W-SW 250 0 min 0 lux 0,00 min 0,3 C 0,9 C
14.03.2009 03:01 0,7 C -0,7 C 95 % 1016 hPa 0,0 l/m 0,0 km/h (0 Bft) W-SW 250 0 min 0 lux 0,00 min -0,0 C 0,7 C
14.03.2009 03:16 0,7 C -0,3 C 96 % 1016 hPa 0,0 l/m 0,0 km/h (0 Bft) W-SW 250 0 min 0 lux 0,00 min 0,1 C 0,7 C
14.03.2009 03:31 0,8 C 0,0 C 96 % 1016 hPa 0,0 l/m 0,0 km/h (0 Bft) W-SW 250 0 min 0 lux 0,00 min 0,2 C 0,8 C
14.03.2009 03:46 0,9 C 0,3 C 97 % 1016 hPa 0,0 l/m 0,0 km/h (0 Bft) W-SW 250 0 min 0 lux 0,00 min 0,5 C 0,9 C
14.03.2009 04:01 1,0 C 0,5 C 97 % 1016 hPa 0,0 l/m 0,0 km/h (0 Bft) W-SW 250 0 min 0 lux 0,00 min 0,6 C 1,0 C
14.03.2009 04:16 1,1 C 0,6 C 97 % 1016 hPa 0,0 l/m 0,0 km/h (0 Bft) W-SW 250 0 min 0 lux 0,00 min 0,7 C 1,1 C
14.03.2009 04:31 1,2 C 0,8 C 97 % 1016 hPa 0,0 l/m 0,0 km/h (0 Bft) W-SW 250 0 min 0 lux 0,00 min 0,8 C 1,2 C
14.03.2009 04:46 1,4 C 1,0 C 97 % 1016 hPa 0,0 l/m 0,0 km/h (0 Bft) W-SW 250 0 min 0 lux 0,00 min 1,0 C 1,4 C
14.03.2009 05:01 1,5 C 1,1 C 97 % 1016 hPa 0,0 l/m 0,0 km/h (0 Bft) W-SW 250 0 min 0 lux 0,00 min 1,1 C 1,5 C
14.03.2009 05:16 1,6 C 1,2 C 97 % 1016 hPa 0,0 l/m 0,0 km/h (0 Bft) W-SW 250 0 min 0 lux 0,00 min 1,2 C 1,6 C
14.03.2009 05:31 1,7 C 1,2 C 97 % 1016 hPa 0,0 l/m 0,0 km/h (0 Bft) W-SW 250 0 min 0 lux 0,00 min 1,3 C 1,7 C
14.03.2009 05:46 1,6 C 1,1 C 97 % 1015 hPa 0,0 l/m 0,0 km/h (0 Bft) W-SW 250 0 min 0 lux 0,00 min 1,2 C 1,6 C
14.03.2009 06:01 1,5 C 1,0 C 97 % 1015 hPa 0,0 l/m 0,0 km/h (0 Bft) W-SW 250 0 min 0 lux 0,00 min 1,1 C 1,5 C
14.03.2009 06:16 1,5 C 0,9 C 97 % 1015 hPa 0,0 l/m 8,5 km/h (2 Bft) SW22.5 230 0 min 0 lux 0,00 min 1,1 C -0,5 C
14.03.2009 06:31 1,4 C 0,6 C 97 % 1015 hPa 0,0 l/m 6,5 km/h (2 Bft) SW 230 0 min 0 lux 0,00 min 1,0 C 1,3 C
14.03.2009 06:46 1,9 C 1,4 C 98 % 1015 hPa 0,0 l/m 13,6 km/h (3 Bft) SW22.5 215 0 min 173 lux 0,00 min 1,6 C -3,9 C
14.03.2009 07:01 2,3 C 1,7 C 98 % 1015 hPa 0,0 l/m 12,0 km/h (2 Bft) S-SW22.5 195 0 min 802 lux 0,00 min 2,0 C -2,4 C
14.03.2009 07:16 2,3 C 1,5 C 98 % 1015 hPa 0,0 l/m 6,8 km/h (2 Bft) S 185 0 min 2,14 klux 0,00 min 2,0 C 1,9 C
14.03.2009 07:31 2,1 C 1,4 C 98 % 1015 hPa 0,0 l/m 0,7 km/h (0 Bft) S 185 0 min 5,42 klux 0,00 min 1,8 C 2,1 C
14.03.2009 07:46 2,3 C 1,9 C 98 % 1015 hPa 0,0 l/m 11,2 km/h (2 Bft) S22.5 180 0 min 8,66 klux 0,00 min 2,0 C -1,8 C
14.03.2009 08:01 3,2 C 2,9 C 99 % 1015 hPa 0,0 l/m 16,0 km/h (3 Bft) SW45 230 0 min 9,7 klux 0,00 min 3,1 C -3,6 C
14.03.2009 08:16 4,2 C 3,7 C 99 % 1015 hPa 0,0 l/m 23,1 km/h (4 Bft) SW45 215 0 min 13,8 klux 0,00 min 4,1 C -5,4 C
14.03.2009 08:31 4,8 C 4,2 C 98 % 1014 hPa 0,0 l/m 18,1 km/h (3 Bft) SW45 230 0 min 13,9 klux 0,00 min 4,5 C -2,6 C
14.03.2009 08:46 5,5 C 4,8 C 97 % 1015 hPa 0,0 l/m 18,3 km/h (3 Bft) SW45 235 0 min 19,5 klux 0,00 min 5,1 C -1,8 C
14.03.2009 09:01 6,3 C 5,7 C 96 % 1015 hPa 0,0 l/m 13,8 km/h (3 Bft) SW45 215 0 min 28,1 klux 0,00 min 5,7 C 1,3 C
14.03.2009 09:16 6,9 C 6,2 C 94 % 1015 hPa 0,0 l/m 19,2 km/h (3 Bft) SW45 235 0 min 27,9 klux 0,00 min 6,0 C -0,4 C
14.03.2009 09:31 7,4 C 7,3 C 93 % 1015 hPa 0,0 l/m 15,5 km/h (3 Bft) SW22.5 235 15 min 31,4 klux 0,00 min 6,3 C 1,8 C
14.03.2009 09:46 7,9 C 8,0 C 90 % 1014 hPa 0,0 l/m 24,3 km/h (4 Bft) W-SW22.5 250 15 min 36,9 klux 0,00 min 6,4 C -0,8 C
14.03.2009 10:01 8,1 C 8,4 C 89 % 1015 hPa 0,0 l/m 20,6 km/h (4 Bft) W-SW22.5 250 15 min 31,6 klux 0,00 min 6,4 C 0,6 C
14.03.2009 10:16 8,2 C 8,5 C 88 % 1015 hPa 0,0 l/m 28,2 km/h (4 Bft) W-SW45 245 15 min 35,3 klux 0,00 min 6,3 C -1,4 C
14.03.2009 10:31 8,3 C 9,1 C 86 % 1015 hPa 0,0 l/m 24,6 km/h (4 Bft) W-SW22.5 240 15 min 35,4 klux 0,00 min 6,1 C -0,4 C
14.03.2009 10:46 8,7 C 9,4 C 86 % 1014 hPa 0,0 l/m 24,0 km/h (4 Bft) SW45 230 15 min 37,2 klux 0,00 min 6,5 C 0,4 C
14.03.2009 11:01 9,2 C 10,3 C 85 % 1015 hPa 0,0 l/m 19,9 km/h (4 Bft) W-SW45 245 15 min 46,6 klux 0,00 min 6,8 C 2,3 C
14.03.2009 11:16 9,6 C 10,9 C 84 % 1014 hPa 0,0 l/m 30,4 km/h (5 Bft) SW45 235 15 min 49,0 klux 0,00 min 7,0 C 0,0 C
14.03.2009 11:31 10,0 C 11,2 C 80 % 1014 hPa 0,0 l/m 31,3 km/h (5 Bft) W-SW22.5 250 15 min 46,6 klux 0,00 min 6,7 C 0,4 C
14.03.2009 11:46 10,4 C 11,1 C 81 % 1014 hPa 0,0 l/m 29,8 km/h (5 Bft) W-SW22.5 245 15 min 52,3 klux 0,00 min 7,3 C 1,3 C
14.03.2009 12:01 10,8 C 11,2 C 78 % 1015 hPa 0,0 l/m 33,0 km/h (5 Bft) W-SW45 250 15 min 52,5 klux 0,00 min 7,1 C 1,2 C
14.03.2009 12:16 11,0 C 12,1 C 78 % 1014 hPa 0,0 l/m 29,4 km/h (5 Bft) SW22.5 235 15 min 68,6 klux 0,00 min 7,3 C 2,2 C
14.03.2009 12:31 11,2 C 12,6 C 77 % 1014 hPa 0,0 l/m 24,6 km/h (4 Bft) W-SW45 245 15 min 77,6 klux 0,00 min 7,3 C 3,6 C
14.03.2009 12:46 11,6 C 14,2 C 77 % 1014 hPa 0,0 l/m 29,5 km/h (5 Bft) W-SW22.5 245 15 min 71,8 klux 0,00 min 7,7 C 3,0 C
14.03.2009 13:01 12,0 C 13,3 C 75 % 1014 hPa 0,0 l/m 32,2 km/h (5 Bft) W-SW45 245 15 min 59,2 klux 0,00 min 7,7 C 3,1 C
14.03.2009 13:16 12,0 C 13,2 C 76 % 1014 hPa 0,0 l/m 32,9 km/h (5 Bft) W-SW22.5 245 15 min 44,8 klux 0,00 min 7,9 C 2,9 C
14.03.2009 13:31 12,4 C 13,4 C 75 % 1014 hPa 0,0 l/m 27,1 km/h (4 Bft) S-SW45 205 15 min 42,6 klux 0,00 min 8,1 C 4,6 C
14.03.2009 13:46 12,4 C 13,5 C 75 % 1014 hPa 0,0 l/m 31,7 km/h (5 Bft) W-SW45 250 15 min 39,5 klux 0,00 min 8,1 C 3,7 C
14.03.2009 14:01 12,5 C 13,8 C 75 % 1014 hPa 0,0 l/m 33,0 km/h (5 Bft) W-SW45 245 15 min 69,1 klux 0,00 min 8,2 C 3,6 C
14.03.2009 14:16 12,7 C 13,6 C 75 % 1013 hPa 0,0 l/m 31,8 km/h (5 Bft) W-SW22.5 250 15 min 43,8 klux 0,00 min 8,4 C 4,1 C
14.03.2009 14:31 13,1 C 14,1 C 71 % 1013 hPa 0,0 l/m 39,4 km/h (6 Bft) W-SW45 250 15 min 79,8 klux 0,00 min 8,0 C 3,6 C
14.03.2009 14:46 12,8 C 14,5 C 72 % 1013 hPa 0,0 l/m 32,4 km/h (5 Bft) SW45 230 15 min 53,5 klux 0,00 min 7,9 C 4,2 C
14.03.2009 15:01 12,7 C 13,9 C 74 % 1013 hPa 0,0 l/m 33,5 km/h (5 Bft) SW45 230 15 min 48,7 klux 0,00 min 8,2 C 3,8 C
14.03.2009 15:16 12,5 C 13,5 C 75 % 1013 hPa 0,0 l/m 28,0 km/h (4 Bft) SW45 230 15 min 29,0 klux 0,00 min 8,2 C 4,6 C
14.03.2009 15:31 12,4 C 12,9 C 74 % 1013 hPa 0,0 l/m 34,5 km/h (5 Bft) W-SW67.5 255 0 min 25,8 klux 0,00 min 7,9 C 3,2 C
14.03.2009 15:46 12,3 C 13,0 C 75 % 1013 hPa 0,0 l/m 33,0 km/h (5 Bft) W-SW22.5 250 15 min 53,3 klux 0,00 min 8,0 C 3,3 C
14.03.2009 16:01 12,2 C 12,8 C 75 % 1013 hPa 0,0 l/m 39,1 km/h (6 Bft) W-SW45 250 0 min 23,6 klux 0,00 min 7,9 C 2,3 C
14.03.2009 16:16 11,7 C 12,1 C 76 % 1013 hPa 0,0 l/m 30,1 km/h (5 Bft) SW45 235 0 min 13,6 klux 0,00 min 7,6 C 3,0 C
14.03.2009 16:31 11,2 C 11,5 C 78 % 1013 hPa 0,0 l/m 27,5 km/h (4 Bft) W-SW45 245 0 min 5,61 klux 0,00 min 7,5 C 2,9 C
14.03.2009 16:46 11,0 C 11,1 C 78 % 1013 hPa 0,0 l/m 31,1 km/h (5 Bft) W-SW22.5 250 0 min 7,38 klux 0,00 min 7,3 C 1,8 C
14.03.2009 17:01 10,5 C 10,4 C 80 % 1013 hPa 0,0 l/m 29,3 km/h (5 Bft) W-SW22.5 245 0 min 2,50 klux 0,00 min 7,2 C 1,5 C
14.03.2009 17:16 10,0 C 9,9 C 82 % 1013 hPa 0,0 l/m 26,8 km/h (4 Bft) W22.5 260 0 min 2,00 klux 0,00 min 7,1 C 1,4 C
14.03.2009 17:31 9,4 C 9,1 C 84 % 1014 hPa 0,0 l/m 32,9 km/h (5 Bft) W45 260 0 min 2,08 klux 0,00 min 6,8 C -0,8 C
14.03.2009 17:46 9,0 C 8,7 C 86 % 1014 hPa 0,0 l/m 23,5 km/h (4 Bft) W22.5 265 0 min 1,53 klux 0,00 min 6,8 C 0,9 C
14.03.2009 18:01 8,8 C 8,4 C 87 % 1014 hPa 0,0 l/m 18,3 km/h (3 Bft) W22.5 260 0 min 1,28 klux 0,00 min 6,8 C 2,3 C
14.03.2009 18:16 8,3 C 8,0 C 90 % 1015 hPa 0,0 l/m 29,1 km/h (5 Bft) W22.5 260 0 min 831 lux 0,00 min 6,8 C -1,5 C
14.03.2009 18:31 8,0 C 7,7 C 91 % 1015 hPa 0,0 l/m 29,5 km/h (5 Bft) W45 260 0 min 629 lux 0,00 min 6,6 C -2,0 C
14.03.2009 18:46 7,9 C 7,5 C 92 % 1015 hPa 0,0 l/m 19,7 km/h (3 Bft) W45 265 0 min 286 lux 0,00 min 6,7 C 0,7 C
14.03.2009 19:01 7,7 C 7,3 C 93 % 1015 hPa 0,0 l/m 20,3 km/h (4 Bft) W-SW45 255 0 min 52 lux 0,00 min 6,6 C 0,2 C
14.03.2009 19:15 7,5 C 7,2 C 94 % 1015 hPa 0,0 l/m 28,9 km/h (5 Bft) W45 265 0 min 13 lux 0,00 min 6,6 C -2,6 C
14.03.2009 19:31 7,1 C 6,8 C 92 % 1016 hPa 0,0 l/m 35,3 km/h (5 Bft) W45 260 0 min 0 lux 0,00 min 5,9 C -4,6 C
14.03.2009 19:46 6,7 C 6,3 C 92 % 1016 hPa 0,0 l/m 20,7 km/h (4 Bft) W45 265 0 min 0 lux 0,00 min 5,5 C -1,2 C
14.03.2009 20:01 6,5 C 6,3 C 93 % 1016 hPa 0,0 l/m 23,6 km/h (4 Bft) W22.5 275 0 min 0 lux 0,00 min 5,5 C -2,5 C
14.03.2009 20:16 6,4 C 6,0 C 93 % 1016 hPa 0,0 l/m 21,7 km/h (4 Bft) W45 270 0 min 0 lux 0,00 min 5,4 C -2,0 C
14.03.2009 20:31 6,1 C 5,8 C 92 % 1017 hPa 0,3 l/m 22,6 km/h (4 Bft) W-NW67.5 285 0 min 0 lux 15,00 min 4,9 C -2,7 C
14.03.2009 20:46 5,8 C 5,5 C 93 % 1017 hPa 0,0 l/m 18,2 km/h (3 Bft) W22.5 260 0 min 0 lux 0,00 min 4,8 C -1,4 C
14.03.2009 21:01 5,8 C 5,4 C 94 % 1017 hPa 0,0 l/m 15,3 km/h (3 Bft) W45 265 0 min 0 lux 0,00 min 4,9 C -0,1 C
14.03.2009 21:16 5,6 C 5,3 C 94 % 1017 hPa 0,0 l/m 13,7 km/h (3 Bft) W-NW45 285 0 min 0 lux 0,00 min 4,7 C 0,5 C
14.03.2009 21:31 5,6 C 5,2 C 94 % 1018 hPa 0,0 l/m 17,9 km/h (3 Bft) W45 280 0 min 0 lux 0,00 min 4,7 C -1,5 C
14.03.2009 21:46 5,6 C 5,2 C 93 % 1018 hPa 0,0 l/m 18,0 km/h (3 Bft) W45 270 0 min 0 lux 0,00 min 4,6 C -1,6 C
14.03.2009 22:01 5,6 C 5,2 C 93 % 1018 hPa 0,0 l/m 21,1 km/h (4 Bft) W45 265 0 min 0 lux 0,00 min 4,6 C -2,8 C
14.03.2009 22:16 5,5 C 5,1 C 93 % 1018 hPa 0,0 l/m 17,1 km/h (3 Bft) W45 275 0 min 0 lux 0,00 min 4,5 C -1,3 C
14.03.2009 22:31 5,4 C 5,1 C 93 % 1018 hPa 0,0 l/m 13,7 km/h (3 Bft) W22.5 260 0 min 0 lux 0,00 min 4,4 C 0,2 C
14.03.2009 22:46 5,4 C 5,1 C 93 % 1018 hPa 0,0 l/m 15,8 km/h (3 Bft) W22.5 260 0 min 0 lux 0,00 min 4,4 C -0,8 C
14.03.2009 23:01 5,3 C 5,1 C 94 % 1018 hPa 0,0 l/m 15,2 km/h (3 Bft) W45 270 0 min 0 lux 0,00 min 4,4 C -0,7 C
14.03.2009 23:16 5,3 C 5,0 C 94 % 1018 hPa 0,0 l/m 14,3 km/h (3 Bft) W22.5 280 0 min 0 lux 0,00 min 4,4 C -0,2 C
14.03.2009 23:31 5,4 C 5,0 C 94 % 1019 hPa 0,0 l/m 16,5 km/h (3 Bft) W45 275 0 min 0 lux 0,00 min 4,5 C -1,2 C
14.03.2009 23:46 5,4 C 5,0 C 94 % 1019 hPa 0,0 l/m 14,1 km/h (3 Bft) W45 265 0 min 0 lux 0,00 min 4,5 C 0,0 C
_ Min-Zeit 03:01 03:01 14:31 14:16 - 00:10 - - - - - 03:01 08:16
Minimum _ 0,7 C -0,7 C 71 % 1013 hPa - 0,0 km/h (0 Bft) - - - - - -0,0 C -5,4 C
_ Max-Zeit 14:31 14:46 08:01 23:31 20:31 14:31 - - 09:31 14:31 20:31 14:16 13:31
Maximum _ 13,1 C 14,5 C 99 % 1019 hPa 0,3 l/m 39,4 km/h
W-SW (6 Bft)
- - 15 min 79,8 klux 15,00 min 8,4 C 4,6 C
Durchschnitt _ 6,3 C 6,2 C 89 % 1016 hPa #0,3 l/m 17,3 km/h (3 Bft) W-SW - #6:15 h 15,3 klux #15 min. 4,6 C 0,7 C